Regional Weather Roundup
Issued by NWS Newport/Morehead, NC

Current Version | Previous Version | Graphics & Text | Print | Product List | Glossary Off
Versions: 1 2 3 4 5 6 7 8 9 10 11 12 13 14 15 16 17 18 19 20 21 22 23 24 25 26 27 28 29 30 31 32 33 34 35 36 37 38 39 40 41 42 43 44 45 46 47 48 49 50

000
ASUS42 KMHX 051013
RWRMHX
WEATHER ROUNDUP FOR EASTERN NORTH CAROLINA
NATIONAL WEATHER SERVICE NEWPORT/MOREHEAD CITY NC
600 AM EDT SUN JUL 05 2015

NOTE: "FAIR" INDICATES FEW OR NO CLOUDS BELOW 12,000 FEET
WITH NO SIGNIFICANT WEATHER AND/OR OBSTRUCTIONS TO VISIBILITY

NCZ015>017-031-032-045>047-102-103-051100-
NORTH COAST

CITY           SKY/WX    TMP DP  RH WIND       PRES   REMARKS
EDENTON        MOCLDY    74  71  89 SW3       30.07S
ELIZABETH CITY CLOUDY    73  70  90 SW7       30.07R
KITTY HAWK     PTSUNNY   77  71  82 W5        30.07R
MANTEO         MOCLDY    75  72  88 W3        30.08R

$$

NCZ045>047-081-094-103-104-051100-
CENTRAL COAST

CITY           SKY/WX    TMP DP  RH WIND       PRES   REMARKS
FRISCO         CLOUDY    77  75  93 SW10      30.10R
SWANQUARTER      N/A     79 N/A N/A W14       30.06R

$$

NCZ095-097-098-100-101-051100-
SOUTHERN COAST

CITY           SKY/WX    TMP DP  RH WIND       PRES   REMARKS
BEAUFORT       MOCLDY    79  70  74 SW10      30.11R
CEDAR ISLAND     N/A     79 N/A N/A W7G14     30.12S
JACKSONVILLE   MOCLDY    75  68  78 SW6       30.10R
PINEY ISLAND   PTSUNNY  N/A N/A N/A SW7       30.09R
WILMINGTON     CLOUDY    75  66  73 SW5       30.11R


$$

NCZ011>013-027>030-043-044-078>080-089-090>093-098-051100-
COASTAL PLAIN

CITY           SKY/WX    TMP DP  RH WIND       PRES   REMARKS
AHOSKIE        PTCLDY   N/A N/A N/A CALM      30.08R FOG
CLINTON        MOCLDY    74  68  82 CALM      30.11R
ELIZABETHTOWN  PTCLDY    73  69  85 CALM      30.10R
GOLDSBORO      MOCLDY    76  71  85 SW7       30.07R
GREENVILLE     MOCLDY    73  73 100 SW6       30.10R
HAVELOCK       MOCLDY    79  67  66 W10       30.10R
KENANSVILLE    MOCLDY    74  67  79 SW3       30.11R
KINSTON        MOCLDY    76  72  86 SW6       30.10R
NEW BERN       CLOUDY    78  70  76 SW7       30.10R
RICHLANDS      MOCLDY    73  66  78 SW3       30.10R
ROCKY MOUNT    PTCLDY    72  70  93 S6        30.09R
WASHINGTON     CLOUDY    76  73  91 SW6       30.08S
WHITEVILLE     MOCLDY    73  68  84 CALM      30.11R

$$

AMZ130-135-150-152-154-156-158-170-250-252-270-ANZ085-086-088-633-658-670-051100-
MARINE OBSERVATIONS

STATION/POSITION TIME  TEMP    WIND        PRES    WAVE   SWELL
                       AIR SEA DIR/SP/G            HT/PER HT/PER
                 (UTC) (F)     (DEG/KT/KT) (MB)    (FT/S) (FT/S)
CHESAPEAKE LIGHT 1000   75     330/  4/  4 1019.0
64 E VA BEACH    0950   76 76  300/  4/  6 1017.6    4/ 7   3/ 7
DUCK             0900   76 72  270/ 11/ 12   N/A
2 E DUCK         0911      77                N/A     2/ 6
OREGON INLET     0900   78 78  260/  8/ 12 1018.0
13E OREGON INLT  1000      75                N/A     4/ 6
HATTERAS CG      0900   77 79  220/  8/ 12 1018.2
DIAMOND BUOY     0950   80 81  230/ 19/ 21 1018.9    5/ 6   2/15
CAPE LOOKOUT     1000   79     240/ 10/ 13 1019.4
BEAUFORT LAB     0900   80 80  250/  5/ 10 1018.1
30 SE NEW RVR IN NOT AVBL
27 SE WRIGHTSVLE 0900      80  230/ 10/ 14   N/A
5 SE WRIGHTSVLE  0908   78 78  280/  6/ 10 1019.3
225 S CAPE HAT   0950   81 80  230/  6/  8 1022.0    4/ 6   3/ 6
41 SE CHARLESTON 0950   81 81  220/ 14/ 16 1019.3    4/ 8   2/ 8

$$


USA.gov is the U.S. government's official web portal to all federal, state and local government web resources and services.